Regional Weather Roundup
Issued by NWS

Home | Current Version | Previous Version | Graphics & Text | Print | Product List | Glossary On
Versions: 1 2 3 4 5 6 7 8 9 10 11 12 13 14 15 16 17 18 19 20 21 22 23 24 25 26 27 28 29 30 31 32 33 34 35 36 37 38 39 40 41 42 43 44 45 46 47 48 49 50
000
ASUS43 KIND 291109
RWRIN

WEATHER ROUNDUP FOR INDIANA
NATIONAL WEATHER SERVICE INDIANAPOLIS IN
600 AM EST THU JAN 29 2015

NOTE: "FAIR" INDICATES FEW OR NO CLOUDS BELOW 12,000 FEET WITH NO
SIGNIFICANT WEATHER AND/OR OBSTRUCTIONS TO VISIBILITY.

* - STATION DOES NOT REPORT WEATHER SUCH AS PRECIPITATION OR FOG.

+ - STATION NOT QUALITY CONTROLLED BY THE NATIONAL WEATHER SERVICE.
    USE DATA WITH CAUTION...ESPECIALLY DEWPOINT AND RELATIVE
    HUMIDITY OBSERVATIONS.

INZ001>003-010>013-019-020-291200-
NORTHWEST INDIANA

CITY           SKY/WX    TMP DP  RH WIND       PRES   REMARKS
GARY /AIRPORT/ MOCLDY    37  23  56 S6        29.70F
KNOX *+        CLOUDY    36  12  37 S9        29.71F
LA PORTE +     CLOUDY    36  27  67 S7        29.72F
MICHIGAN CITY+ CLOUDY    36  21  55 SE8       29.71F
MONTICELLO +   MOCLDY    39  28  66 S9        29.73F
RENSSELAER +   MOCLDY    36  32  87 S7        29.71F
VALPARAISO     CLOUDY    34  25  69 S7        29.71F WCI  28

$$

LMZ046-743>745-291200-
SOUTHERN LAKE MICHIGAN

STATION/POSITION TIME  TEMP WIND        PRES
                       AIR  DIR/SP/G
                 (UTC) (F)  (DEG/KT/KT) (MB)
MICHIGAN CITY    1100   37  150/ 17/ 22   N/A

$$

INZ004-005-014>016-021>024-291200-
NORTH CENTRAL INDIANA

CITY           SKY/WX    TMP DP  RH WIND       PRES   REMARKS
GOSHEN         CLOUDY    34  25  69 S13       29.75F WCI  25
LOGANSPORT +   CLOUDY    34  28  80 S13       29.75F WCI  25
PERU/GRISSOM   CLOUDY    37  27  66 S14       29.75F
ROCHESTER +    CLOUDY    37  28  70 S9        29.75F
SOUTH BEND     CLOUDY    36  25  64 S9        29.74F
WARSAW +       CLOUDY    36  25  64 S9G16     29.75F

$$

INZ006>009-017-018-025>027-291200-
NORTHEAST INDIANA

CITY           SKY/WX    TMP DP  RH WIND       PRES   REMARKS
ANGOLA *+      PTCLDY    28  25  86 S10       29.77F WCI  19
AUBURN +       CLOUDY    32  27  80 SE3       29.80F
FORT WAYNE     CLOUDY    35  26  69 S10       29.79F WCI  27
HUNTINGTON +   CLOUDY    37  22  54 S9        29.77F

$$

INZ028-029-035-036-043>045-051>053-291200-
WEST CENTRAL INDIANA

CITY           SKY/WX    TMP DP  RH WIND       PRES   REMARKS
CRAWFORDSVL +  MOCLDY    39  26  58 S15G21    29.75F
GREENCASTLE +  MOCLDY    43  28  56 S10G20    29.78F
LAFAYETTE      MOCLDY    40  30  67 S10       29.74F
TERRE HAUTE    MOCLDY    42  31  64 S13       29.78F

$$

INZ030>032-037>040-046>048-054>057-064-065-291200-
CENTRAL INDIANA

CITY           SKY/WX    TMP DP  RH WIND       PRES   REMARKS
CP ATTERBURY + CLOUDY    37  30  75 S12       29.84F
GREENWOOD *+   CLOUDY    36  23  60 SE8       29.82
INDIANAPOLIS   CLOUDY    34  25  69 SE9       29.80F WCI  27
-EAGLE CREEK   CLOUDY    37  25  61 SE6       29.79F
KOKOMO *+      CLOUDY    37  27  65 S17       29.77F
MARION +       CLOUDY    37  26  64 S15G23    29.78F
MT COMFORT *+  CLOUDY    37  18  44 S15       29.81F
SHELBYVILLE    CLOUDY    39  28  64 S16       29.83F
ZIONSVILLE +   CLOUDY    37  24  57 S12       29.78F

$$

INZ033-034-041-042-049-050-058-059-291200-
EAST CENTRAL INDIANA

CITY           SKY/WX    TMP DP  RH WIND       PRES   REMARKS
MUNCIE         CLOUDY    38  26  62 S16G29    29.78F

$$

INZ060-061-067>069-081>083-085>088-291200-
SOUTHWEST INDIANA

CITY           SKY/WX    TMP DP  RH WIND       PRES   REMARKS
EVANSVILLE     CLOUDY    50  34  54 S13       29.86F
HUNTINGBURG *+ CLOUDY    45  32  61 S16G22    29.87S
WASHINGTON +   CLOUDY    45  29  55 S21G26    29.81F

$$

INZ062-063-066-070>080-084-089>092-291200-
SOUTH CENTRAL AND SOUTHEAST INDIANA

CITY           SKY/WX    TMP DP  RH WIND       PRES   REMARKS
BLOOMINGTON    MOCLDY    39  31  72 SE10      29.81F

$$



USA.gov is the U.S. government's official web portal to all federal, state and local government web resources and services.